{"data":{"norad_id":45856,"intl_designator":"2020-042A","name":"GAOFEN DUOMO (GFDM)","alt_names":[],"object_type":"PAYLOAD","status":"ACTIVE","operator":null,"country":"PRC","launch_date":"2020-07-03","launch_site_code":"TAISC","launch_vehicle":null,"mission":null,"orbit_class":"UNKNOWN","rcs_meters":null,"size_class":null,"mass_kg":null,"dimensions":null,"purposes":[],"wikipedia_slug":null,"has_3d_model":false,"image_url":null,"decayed_at":null,"tle_current":{"epoch":"2026-05-25T04:07:08.049216Z","epoch_age_seconds":57533,"freshness":"FRESH","line1":"1 45856U 20042A   26145.17162094  .00000070  00000+0  16947-4 0  9991","line2":"2 45856  97.7755 205.8937 0011781 141.4321 218.7733 14.76840428317611","mean_motion":14.76840428,"eccentricity":0.0011781,"inclination_deg":97.7755,"raan_deg":205.8937,"arg_perigee_deg":141.4321,"mean_anomaly_deg":218.7733,"bstar":1.6947e-5,"rev_number":31761,"period_min":97.505456425655,"perigee_km":631.04788421442,"apogee_km":647.58240495749,"semimajor_km":7017.452144586,"source":"CELESTRAK","updated_at":"2026-05-25T13:37:56.251463Z"}}}